Location: ???????????
(54.6970°N, 39.1477°E)
Time: 06:56:53
(UTC+00:00)

USA 234 - Pass Details

Date: 19 May 2025
Orbit: 1097 x 1111 km, 123.0° (Epoch: 19 June)

Event Time Altitude Azimuth Distance (km) Brightness Sun altitude
Rises 22:25:13 0° 93° (E) 3,913 6.3 -14.0°
Reaches altitude 10° 22:27:42 10° 92° (E) 2,957 5.7 -13.9°
Maximum altitude 22:34:13 77° 8° (N) 1,135 3.5 -13.7°
Drops below altitude 10° 22:40:46 10° 284° (WNW) 2,969 5.5 -13.3°
Sets 22:43:15 0° 283° (WNW) 3,929 6.1 -13.2°
